User: anonymous   Login
Location: Newark
(3.0500°N, 36.0167°E)
Time: 11:58:10
(UTC+00:00)
Language:

Explorer 7 - Orbit

View from above orbital plane
View from above orbital plane
View from above satellite
View from above satellite

Ground track
Ground track

The orbit data is extracted from the following two-line orbital elements,

1    22U 59009A   19230.90938544 -.00000067 +00000-0 +18315-4 0  9990
2    22 050.2844 086.0504 0140099 179.1585 180.9623 14.94899666424967
Epoch (UTC): 18 August 2019 21:49:30
Eccentricity: 0.0140099
inclination: 50.2844°
perigee height: 485 km
apogee height: 680 km
right ascension of ascending node: 86.0504°
argument of perigee: 179.1585°
revolutions per day: 14.94899666
mean anomaly at epoch: 180.9623°
orbit number at epoch: 42496

The dashed part of the orbit path shows where the satellite is in the earth's shadow,  

DLR